Time,TemperatureF,DewpointF,PressureIn,WindDirection,WindDirectionDegrees,WindSpeedMPH,WindSpeedGustMPH,Humidity,HourlyPrecipIn,Conditions,Clouds,dailyrainin,SoftwareType,DateUTC
2017-03-27 00:04:00,53.3,43.9,29.98,SSW,202,0.0,0.0,70,0.00,,,0.00,WUHU21623XXSP,2017-03-27 07:04:00,
2017-03-27 00:09:00,53.0,43.6,29.99,SSW,202,0.0,0.0,70,0.00,,,0.00,WUHU21623XXSP,2017-03-27 07:09:00,
2017-03-27 00:14:00,52.9,43.5,29.98,SSW,202,0.0,0.0,70,0.00,,,0.00,WUHU21623XXSP,2017-03-27 07:14:00,
2017-03-27 00:19:00,52.7,43.3,29.98,SSW,202,0.0,0.0,70,0.00,,,0.00,WUHU21623XXSP,2017-03-27 07:19:00,
2017-03-27 00:24:00,52.4,43.0,29.98,SSW,202,0.0,0.0,70,0.00,,,0.00,WUHU21623XXSP,2017-03-27 07:24:00,
2017-03-27 00:29:00,52.1,42.7,29.98,SSW,202,0.0,0.0,70,0.00,,,0.00,WUHU21623XXSP,2017-03-27 07:29:00,
2017-03-27 00:34:00,52.0,42.6,29.98,SSW,202,0.0,0.0,70,0.00,,,0.00,WUHU21623XXSP,2017-03-27 07:34:00,
2017-03-27 00:39:00,51.7,42.4,29.98,SSW,202,0.0,0.0,70,0.00,,,0.00,WUHU21623XXSP,2017-03-27 07:39:00,
2017-03-27 00:44:00,51.6,42.6,29.98,SSE,157,0.0,0.0,71,0.00,,,0.00,WUHU21623XXSP,2017-03-27 07:44:00,
2017-03-27 00:49:00,51.5,42.5,29.98,SSE,157,0.0,0.0,71,0.00,,,0.00,WUHU21623XXSP,2017-03-27 07:49:00,
2017-03-27 00:54:00,51.2,42.3,29.98,SSE,157,0.0,0.0,71,0.00,,,0.00,WUHU21623XXSP,2017-03-27 07:54:00,
2017-03-27 00:59:00,51.2,42.2,29.98,SSE,157,0.0,0.0,71,0.00,,,0.00,WUHU21623XXSP,2017-03-27 07:59:00,
2017-03-27 01:04:00,51.2,42.2,29.98,SSE,157,0.0,0.0,71,0.00,,,0.00,WUHU21623XXSP,2017-03-27 08:04:00,
2017-03-27 01:09:00,51.1,42.1,29.98,SSE,157,0.0,0.0,71,0.00,,,0.00,WUHU21623XXSP,2017-03-27 08:09:00,
2017-03-27 01:14:00,51.1,42.1,29.98,SSE,157,0.0,0.0,71,0.00,,,0.00,WUHU21623XXSP,2017-03-27 08:14:00,
2017-03-27 01:19:00,51.1,42.1,29.98,SSE,157,0.0,0.0,71,0.00,,,0.00,WUHU21623XXSP,2017-03-27 08:19:00,
2017-03-27 01:24:00,50.9,42.0,29.98,SSE,157,0.0,0.0,71,0.00,,,0.00,WUHU21623XXSP,2017-03-27 08:24:00,
2017-03-27 01:29:00,51.0,42.0,29.98,SSE,157,0.0,0.0,71,0.00,,,0.00,WUHU21623XXSP,2017-03-27 08:29:00,
2017-03-27 01:34:00,51.0,42.0,29.98,SSE,157,0.0,0.0,71,0.00,,,0.00,WUHU21623XXSP,2017-03-27 08:34:00,
2017-03-27 01:39:00,51.0,42.1,29.98,SSE,157,0.0,0.0,71,0.00,,,0.00,WUHU21623XXSP,2017-03-27 08:39:00,
2017-03-27 01:44:00,50.9,41.9,29.98,SSE,157,0.0,0.0,71,0.00,,,0.00,WUHU21623XXSP,2017-03-27 08:44:00,
2017-03-27 01:49:00,50.7,41.7,29.98,SSE,157,0.0,0.0,71,0.00,,,0.00,WUHU21623XXSP,2017-03-27 08:49:00,
2017-03-27 01:54:00,50.7,41.8,29.99,SSE,157,0.0,0.0,71,0.00,,,0.00,WUHU21623XXSP,2017-03-27 08:54:00,
2017-03-27 01:59:00,50.8,42.2,29.98,SSE,157,0.0,0.0,72,0.00,,,0.00,WUHU21623XXSP,2017-03-27 08:59:00,
2017-03-27 02:04:00,50.8,42.2,29.99,SSE,157,0.0,0.0,72,0.00,,,0.00,WUHU21623XXSP,2017-03-27 09:04:00,
2017-03-27 02:09:00,50.7,42.1,29.98,SSE,157,0.0,0.0,72,0.00,,,0.00,WUHU21623XXSP,2017-03-27 09:09:00,
2017-03-27 02:14:00,50.7,42.1,29.98,SSE,157,0.0,0.0,72,0.00,,,0.00,WUHU21623XXSP,2017-03-27 09:14:00,
2017-03-27 02:19:00,50.7,42.1,29.98,SSE,157,0.0,0.0,72,0.00,,,0.00,WUHU21623XXSP,2017-03-27 09:19:00,
2017-03-27 02:24:00,50.5,41.9,29.98,SSE,157,0.0,0.0,72,0.00,,,0.00,WUHU21623XXSP,2017-03-27 09:24:00,
2017-03-27 02:29:00,50.6,42.0,29.98,SSE,157,0.0,0.0,72,0.00,,,0.00,WUHU21623XXSP,2017-03-27 09:29:00,
2017-03-27 02:34:00,50.6,42.0,29.98,SSE,157,0.0,0.0,72,0.00,,,0.00,WUHU21623XXSP,2017-03-27 09:34:00,
2017-03-27 02:39:00,50.5,41.9,29.98,SSE,157,0.0,0.0,72,0.00,,,0.00,WUHU21623XXSP,2017-03-27 09:39:00,
2017-03-27 02:44:00,50.6,42.3,29.98,SSE,157,0.0,0.0,73,0.00,,,0.00,WUHU21623XXSP,2017-03-27 09:44:00,
2017-03-27 02:49:00,50.4,41.8,29.98,SSE,157,0.0,0.0,72,0.00,,,0.00,WUHU21623XXSP,2017-03-27 09:49:00,
2017-03-27 02:54:00,50.5,42.2,29.97,SSE,157,0.0,0.0,73,0.00,,,0.00,WUHU21623XXSP,2017-03-27 09:54:00,
2017-03-27 02:59:00,50.5,42.3,29.98,SSE,157,0.0,0.0,73,0.00,,,0.00,WUHU21623XXSP,2017-03-27 09:59:00,
2017-03-27 03:04:00,50.4,42.2,29.97,SSE,157,0.0,0.0,73,0.00,,,0.00,WUHU21623XXSP,2017-03-27 10:04:00,
2017-03-27 03:09:00,50.5,41.9,29.97,SSE,157,0.0,0.0,72,0.00,,,0.00,WUHU21623XXSP,2017-03-27 10:09:00,
2017-03-27 03:14:00,50.5,41.9,29.96,SSE,157,0.0,0.0,72,0.00,,,0.00,WUHU21623XXSP,2017-03-27 10:14:00,
2017-03-27 03:19:00,50.5,41.9,29.97,SSE,157,0.0,0.0,72,0.00,,,0.00,WUHU21623XXSP,2017-03-27 10:19:00,
2017-03-27 03:24:00,50.4,42.2,29.97,SSE,157,0.0,0.0,73,0.00,,,0.00,WUHU21623XXSP,2017-03-27 10:24:00,
2017-03-27 03:29:00,50.5,42.2,29.97,SSE,157,0.0,0.0,73,0.00,,,0.00,WUHU21623XXSP,2017-03-27 10:29:00,
2017-03-27 03:34:00,50.7,42.5,29.98,East,90,0.0,0.0,73,0.00,,,0.00,WUHU21623XXSP,2017-03-27 10:34:00,
2017-03-27 03:39:00,50.8,42.9,29.98,East,90,0.0,0.0,74,0.00,,,0.00,WUHU21623XXSP,2017-03-27 10:39:00,
2017-03-27 03:44:00,50.9,43.0,29.97,East,90,0.0,0.0,74,0.00,,,0.00,WUHU21623XXSP,2017-03-27 10:44:00,
2017-03-27 03:49:00,51.0,43.1,29.97,East,90,0.0,0.0,74,0.00,,,0.00,WUHU21623XXSP,2017-03-27 10:49:00,
2017-03-27 03:54:00,51.1,43.1,29.97,East,90,0.0,0.0,74,0.00,,,0.00,WUHU21623XXSP,2017-03-27 10:54:00,
2017-03-27 03:59:00,51.1,43.2,29.97,East,90,0.0,0.0,74,0.00,,,0.00,WUHU21623XXSP,2017-03-27 10:59:00,
2017-03-27 04:04:00,51.2,43.3,29.96,East,90,0.0,0.0,74,0.00,,,0.00,WUHU21623XXSP,2017-03-27 11:04:00,
2017-03-27 04:09:00,51.1,43.2,29.96,East,90,0.0,0.0,74,0.00,,,0.00,WUHU21623XXSP,2017-03-27 11:09:00,
2017-03-27 04:14:00,51.2,43.3,29.97,East,90,0.0,0.0,74,0.00,,,0.00,WUHU21623XXSP,2017-03-27 11:14:00,
2017-03-27 04:19:00,51.3,43.4,29.96,East,90,0.0,0.0,74,0.00,,,0.00,WUHU21623XXSP,2017-03-27 11:19:00,
2017-03-27 04:24:00,51.2,43.2,29.96,East,90,0.0,0.0,74,0.00,,,0.00,WUHU21623XXSP,2017-03-27 11:24:00,
2017-03-27 04:29:00,51.0,43.1,29.96,East,90,0.0,0.0,74,0.00,,,0.00,WUHU21623XXSP,2017-03-27 11:29:00,
2017-03-27 04:34:00,51.1,43.2,29.96,East,90,0.0,0.0,74,0.00,,,0.00,WUHU21623XXSP,2017-03-27 11:34:00,
2017-03-27 04:39:00,51.2,43.3,29.96,East,90,0.0,0.0,74,0.00,,,0.00,WUHU21623XXSP,2017-03-27 11:39:00,
2017-03-27 04:44:00,51.3,43.4,29.96,East,90,0.0,0.0,74,0.00,,,0.00,WUHU21623XXSP,2017-03-27 11:44:00,
2017-03-27 04:49:00,51.4,43.5,29.96,East,90,0.0,0.0,74,0.00,,,0.00,WUHU21623XXSP,2017-03-27 11:49:00,
2017-03-27 04:54:00,51.5,43.6,29.96,NE,45,0.0,0.0,74,0.00,,,0.00,WUHU21623XXSP,2017-03-27 11:54:00,
2017-03-27 04:59:00,51.6,43.6,29.96,NE,45,0.0,0.0,74,0.00,,,0.00,WUHU21623XXSP,2017-03-27 11:59:00,
2017-03-27 05:04:00,51.6,43.7,29.96,NE,45,0.0,0.0,74,0.00,,,0.00,WUHU21623XXSP,2017-03-27 12:04:00,
2017-03-27 05:09:00,51.6,43.7,29.96,NE,45,0.0,0.0,74,0.00,,,0.00,WUHU21623XXSP,2017-03-27 12:09:00,
2017-03-27 05:14:00,51.6,43.7,29.97,NE,45,0.0,0.0,74,0.00,,,0.00,WUHU21623XXSP,2017-03-27 12:14:00,
2017-03-27 05:19:00,51.8,44.2,29.97,NE,45,0.0,0.0,75,0.00,,,0.00,WUHU21623XXSP,2017-03-27 12:19:00,
2017-03-27 05:24:00,52.0,44.4,29.97,NE,45,0.0,0.0,75,0.00,,,0.00,WUHU21623XXSP,2017-03-27 12:24:00,
2017-03-27 05:29:00,52.0,44.4,29.97,NE,45,0.0,0.0,75,0.00,,,0.00,WUHU21623XXSP,2017-03-27 12:29:00,
2017-03-27 05:34:00,52.2,44.6,29.97,NE,45,0.0,0.0,75,0.00,,,0.00,WUHU21623XXSP,2017-03-27 12:34:00,
2017-03-27 05:39:00,52.3,44.7,29.97,NE,45,0.0,0.0,75,0.00,,,0.00,WUHU21623XXSP,2017-03-27 12:39:00,
2017-03-27 05:44:00,52.5,44.9,29.98,NE,45,0.0,0.0,75,0.00,,,0.00,WUHU21623XXSP,2017-03-27 12:44:00,
2017-03-27 05:49:00,52.9,45.3,29.98,NE,45,0.0,0.0,75,0.00,,,0.00,WUHU21623XXSP,2017-03-27 12:49:00,
2017-03-27 05:54:00,52.9,45.3,29.98,NE,45,0.0,0.0,75,0.00,,,0.00,WUHU21623XXSP,2017-03-27 12:54:00,
2017-03-27 05:59:00,53.2,45.9,29.97,NE,45,0.0,0.0,76,0.00,,,0.00,WUHU21623XXSP,2017-03-27 12:59:00,
2017-03-27 06:04:00,53.4,46.1,29.97,NNE,22,1.0,1.0,76,0.00,,,0.00,WUHU21623XXSP,2017-03-27 13:04:00,
2017-03-27 06:09:00,53.4,46.1,29.97,NNE,22,1.0,1.0,76,0.00,,,0.00,WUHU21623XXSP,2017-03-27 13:09:00,
2017-03-27 06:14:00,53.8,46.5,29.96,NNE,22,0.0,2.0,76,0.00,,,0.00,WUHU21623XXSP,2017-03-27 13:14:00,
2017-03-27 06:15:00,53.8,46.5,29.97,NNE,22,0.0,2.0,76,0.00,,,0.00,WUHU21623XXSP,2017-03-27 13:15:00,
2017-03-27 06:20:00,53.8,46.5,29.97,NNE,18,2.0,2.0,76,0.00,,,0.00,WUHU21623XXSP,2017-03-27 13:20:00,
2017-03-27 06:25:00,54.1,46.8,29.97,NNE,22,0.0,2.0,76,0.00,,,0.00,WUHU21623XXSP,2017-03-27 13:25:00,
2017-03-27 06:30:00,54.1,46.8,29.96,NNE,22,0.0,0.0,76,0.00,,,0.00,WUHU21623XXSP,2017-03-27 13:30:00,
2017-03-27 06:35:00,54.3,47.0,29.97,NE,45,0.0,2.0,76,0.00,,,0.00,WUHU21623XXSP,2017-03-27 13:35:00,
2017-03-27 06:40:00,54.3,47.0,29.96,NE,45,0.0,2.0,76,0.00,,,0.00,WUHU21623XXSP,2017-03-27 13:40:00,
2017-03-27 06:45:00,54.3,47.0,29.97,NE,45,0.0,0.0,76,0.00,,,0.00,WUHU21623XXSP,2017-03-27 13:45:00,
2017-03-27 06:50:00,54.3,47.0,29.96,NNE,22,0.0,0.0,76,0.00,,,0.00,WUHU21623XXSP,2017-03-27 13:50:00,
2017-03-27 06:55:00,54.3,47.0,29.97,NNE,22,0.0,0.0,76,0.00,,,0.00,WUHU21623XXSP,2017-03-27 13:55:00,
2017-03-27 07:00:00,54.3,47.0,29.97,NNE,22,0.0,0.0,76,0.00,,,0.00,WUHU21623XXSP,2017-03-27 14:00:00,
2017-03-27 07:05:00,54.1,46.8,29.97,NNE,22,0.0,0.0,76,0.00,,,0.00,WUHU21623XXSP,2017-03-27 14:05:00,
2017-03-27 07:10:00,54.1,46.8,29.97,NNE,22,0.0,0.0,76,0.00,,,0.00,WUHU21623XXSP,2017-03-27 14:10:00,
2017-03-27 07:15:00,54.0,46.3,29.96,NNE,22,0.0,0.0,75,0.00,,,0.00,WUHU21623XXSP,2017-03-27 14:15:00,
2017-03-27 07:20:00,54.0,46.3,29.97,NNE,22,0.0,0.0,75,0.00,,,0.00,WUHU21623XXSP,2017-03-27 14:20:00,
2017-03-27 07:25:00,53.8,46.1,29.97,NNE,22,0.0,0.0,75,0.00,,,0.00,WUHU21623XXSP,2017-03-27 14:25:00,
2017-03-27 07:30:00,53.8,46.1,29.98,NNE,22,0.0,0.0,75,0.00,,,0.00,WUHU21623XXSP,2017-03-27 14:30:00,
2017-03-27 07:35:00,53.8,46.5,29.98,North,0,0.0,1.0,76,0.00,,,0.00,WUHU21623XXSP,2017-03-27 14:35:00,
2017-03-27 07:40:00,54.0,46.7,29.98,North,0,0.0,1.0,76,0.00,,,0.00,WUHU21623XXSP,2017-03-27 14:40:00,
2017-03-27 07:45:00,54.1,46.8,29.99,NNW,337,0.0,1.0,76,0.00,,,0.00,WUHU21623XXSP,2017-03-27 14:45:00,
2017-03-27 07:50:00,54.3,47.0,29.99,NNW,337,0.0,1.0,76,0.00,,,0.00,WUHU21623XXSP,2017-03-27 14:50:00,
2017-03-27 07:55:00,54.5,47.2,29.99,North,0,0.0,0.0,76,0.00,,,0.00,WUHU21623XXSP,2017-03-27 14:55:00,
2017-03-27 08:00:00,55.0,47.7,29.99,NE,45,0.0,0.0,76,0.00,,,0.00,WUHU21623XXSP,2017-03-27 15:00:00,
2017-03-27 08:05:00,55.2,48.2,29.99,NE,45,0.0,0.0,77,0.00,,,0.00,WUHU21623XXSP,2017-03-27 15:05:00,
2017-03-27 08:10:00,55.6,48.6,29.99,NNE,22,0.0,0.0,77,0.00,,,0.00,WUHU21623XXSP,2017-03-27 15:10:00,
2017-03-27 08:15:00,55.9,48.9,29.99,NE,45,0.0,0.0,77,0.00,,,0.00,WUHU21623XXSP,2017-03-27 15:15:00,
2017-03-27 08:20:00,56.1,49.1,30.00,NNE,22,0.0,0.0,77,0.00,,,0.00,WUHU21623XXSP,2017-03-27 15:20:00,
2017-03-27 08:25:00,56.5,49.5,30.00,NNE,22,0.0,0.0,77,0.00,,,0.00,WUHU21623XXSP,2017-03-27 15:25:00,
2017-03-27 08:30:00,56.7,49.6,30.01,NNE,12,1.0,2.0,77,0.00,,,0.00,WUHU21623XXSP,2017-03-27 15:30:00,
2017-03-27 08:35:00,56.8,49.7,30.00,NNE,22,1.0,2.0,77,0.00,,,0.00,WUHU21623XXSP,2017-03-27 15:35:00,
2017-03-27 08:36:00,57.0,49.9,30.00,NNE,22,0.0,2.0,77,0.00,,,0.00,WUHU21623XXSP,2017-03-27 15:36:00,
2017-03-27 08:41:00,57.2,49.8,30.00,North,0,0.0,3.0,76,0.00,,,0.00,WUHU21623XXSP,2017-03-27 15:41:00,
2017-03-27 08:46:00,57.6,50.2,30.00,NE,45,0.0,3.0,76,0.00,,,0.00,WUHU21623XXSP,2017-03-27 15:46:00,
2017-03-27 08:51:00,57.9,50.5,30.00,NNE,29,1.0,1.0,76,0.00,,,0.00,WUHU21623XXSP,2017-03-27 15:51:00,
2017-03-27 08:56:00,58.1,50.7,30.00,NE,45,1.0,1.0,76,0.00,,,0.00,WUHU21623XXSP,2017-03-27 15:56:00,
2017-03-27 09:01:00,58.5,51.1,30.00,ESE,112,0.0,1.0,76,0.00,,,0.00,WUHU21623XXSP,2017-03-27 16:01:00,
2017-03-27 09:06:00,58.8,51.0,30.00,SE,135,0.0,0.0,75,0.00,,,0.00,WUHU21623XXSP,2017-03-27 16:06:00,
2017-03-27 09:11:00,59.2,51.4,30.00,North,0,1.0,2.0,75,0.00,,,0.00,WUHU21623XXSP,2017-03-27 16:11:00,
2017-03-27 09:16:00,59.5,51.7,30.00,SE,135,0.0,2.0,75,0.00,,,0.00,WUHU21623XXSP,2017-03-27 16:16:00,
2017-03-27 09:21:00,59.7,51.5,30.00,NNE,22,1.0,2.0,74,0.00,,,0.00,WUHU21623XXSP,2017-03-27 16:21:00,
2017-03-27 09:26:00,60.1,51.5,30.00,ESE,112,0.0,2.0,73,0.00,,,0.00,WUHU21623XXSP,2017-03-27 16:26:00,
2017-03-27 09:31:00,60.4,51.8,30.00,ENE,67,0.0,2.0,73,0.00,,,0.00,WUHU21623XXSP,2017-03-27 16:31:00,
2017-03-27 09:36:00,61.0,52.4,29.99,NE,45,1.0,2.0,73,0.00,,,0.00,WUHU21623XXSP,2017-03-27 16:36:00,
2017-03-27 09:41:00,61.2,52.2,30.00,SE,135,0.0,1.0,72,0.00,,,0.00,WUHU21623XXSP,2017-03-27 16:41:00,
2017-03-27 09:46:00,61.3,52.0,30.00,SSE,157,0.0,2.0,71,0.00,,,0.00,WUHU21623XXSP,2017-03-27 16:46:00,
2017-03-27 09:51:00,61.5,52.5,30.00,SSE,157,0.0,2.0,72,0.00,,,0.00,WUHU21623XXSP,2017-03-27 16:51:00,
2017-03-27 09:56:00,61.7,52.3,30.00,SSE,157,0.0,1.0,71,0.00,,,0.00,WUHU21623XXSP,2017-03-27 16:56:00,
2017-03-27 10:01:00,61.7,52.3,30.00,SE,135,0.0,0.0,71,0.00,,,0.00,WUHU21623XXSP,2017-03-27 17:01:00,
2017-03-27 10:06:00,62.2,52.4,29.99,ENE,67,2.0,2.0,70,0.00,,,0.00,WUHU21623XXSP,2017-03-27 17:06:00,
2017-03-27 10:11:00,62.6,52.8,29.99,SSE,157,2.0,2.0,70,0.00,,,0.00,WUHU21623XXSP,2017-03-27 17:11:00,
2017-03-27 10:16:00,63.1,52.9,29.99,SSE,157,0.0,2.0,69,0.00,,,0.00,WUHU21623XXSP,2017-03-27 17:16:00,
2017-03-27 10:21:00,63.5,53.3,29.99,SSE,157,1.0,2.0,69,0.00,,,0.00,WUHU21623XXSP,2017-03-27 17:21:00,
2017-03-27 10:26:00,63.7,53.1,29.98,South,180,2.0,3.0,68,0.00,,,0.00,WUHU21623XXSP,2017-03-27 17:26:00,
2017-03-27 10:31:00,63.7,52.7,29.98,SE,135,0.0,3.0,67,0.00,,,0.00,WUHU21623XXSP,2017-03-27 17:31:00,
2017-03-27 10:36:00,63.7,52.7,29.98,SSE,157,0.0,2.0,67,0.00,,,0.00,WUHU21623XXSP,2017-03-27 17:36:00,
2017-03-27 10:41:00,64.0,53.0,29.98,South,177,2.0,4.0,67,0.00,,,0.00,WUHU21623XXSP,2017-03-27 17:41:00,
2017-03-27 10:46:00,64.2,53.2,29.98,South,180,1.0,4.0,67,0.00,,,0.00,WUHU21623XXSP,2017-03-27 17:46:00,
2017-03-27 10:51:00,64.4,53.0,29.98,South,180,2.0,3.0,66,0.00,,,0.00,WUHU21623XXSP,2017-03-27 17:51:00,
2017-03-27 10:56:00,64.6,52.7,29.98,SSE,157,2.0,3.0,65,0.00,,,0.00,WUHU21623XXSP,2017-03-27 17:56:00,
2017-03-27 11:01:00,65.1,53.2,29.98,SE,135,1.0,3.0,65,0.00,,,0.00,WUHU21623XXSP,2017-03-27 18:01:00,
2017-03-27 11:06:00,65.3,53.4,29.98,SSE,157,0.0,4.0,65,0.00,,,0.00,WUHU21623XXSP,2017-03-27 18:06:00,
2017-03-27 11:11:00,65.7,53.4,29.98,ESE,112,2.0,4.0,64,0.00,,,0.00,WUHU21623XXSP,2017-03-27 18:11:00,
2017-03-27 11:16:00,65.8,53.5,29.98,SSE,157,1.0,2.0,64,0.00,,,0.00,WUHU21623XXSP,2017-03-27 18:16:00,
2017-03-27 11:21:00,66.4,53.6,29.98,NE,45,2.0,3.0,63,0.00,,,0.00,WUHU21623XXSP,2017-03-27 18:21:00,
2017-03-27 11:22:00,66.4,53.6,29.98,NE,35,2.0,3.0,63,0.00,,,0.00,WUHU21623XXSP,2017-03-27 18:22:00,
2017-03-27 11:27:00,66.7,53.9,29.97,ESE,112,1.0,3.0,63,0.00,,,0.00,WUHU21623XXSP,2017-03-27 18:27:00,
2017-03-27 11:32:00,67.3,53.1,29.97,South,191,1.0,4.0,60,0.00,,,0.00,WUHU21623XXSP,2017-03-27 18:32:00,
2017-03-27 11:37:00,67.6,53.4,29.96,SSE,157,0.0,4.0,60,0.00,,,0.00,WUHU21623XXSP,2017-03-27 18:37:00,
2017-03-27 11:42:00,67.8,53.1,29.96,SE,135,0.0,3.0,59,0.00,,,0.00,WUHU21623XXSP,2017-03-27 18:42:00,
2017-03-27 11:47:00,68.4,52.2,29.96,SW,225,1.0,5.0,56,0.00,,,0.00,WUHU21623XXSP,2017-03-27 18:47:00,
2017-03-27 11:52:00,68.5,51.3,29.96,SW,214,3.0,5.0,54,0.00,,,0.00,WUHU21623XXSP,2017-03-27 18:52:00,
2017-03-27 11:57:00,69.1,51.3,29.96,SSW,202,2.0,5.0,53,0.00,,,0.00,WUHU21623XXSP,2017-03-27 18:57:00,
2017-03-27 12:02:00,69.4,50.0,29.95,SSW,213,3.0,5.0,50,0.00,,,0.00,WUHU21623XXSP,2017-03-27 19:02:00,
2017-03-27 12:07:00,69.6,49.6,29.95,South,184,3.0,7.0,49,0.00,,,0.00,WUHU21623XXSP,2017-03-27 19:07:00,
2017-03-27 12:12:00,70.0,49.4,29.95,WSW,250,2.0,7.0,48,0.00,,,0.00,WUHU21623XXSP,2017-03-27 19:12:00,
2017-03-27 12:17:00,70.3,49.1,29.95,West,273,2.0,5.0,47,0.00,,,0.00,WUHU21623XXSP,2017-03-27 19:17:00,
2017-03-27 12:22:00,70.7,48.3,29.95,SW,232,3.0,5.0,45,0.00,,,0.00,WUHU21623XXSP,2017-03-27 19:22:00,
2017-03-27 12:27:00,70.9,48.5,29.95,WSW,247,4.0,6.0,45,0.00,,,0.00,WUHU21623XXSP,2017-03-27 19:27:00,
2017-03-27 12:29:00,71.2,48.1,29.95,SW,225,4.0,6.0,44,0.00,,,0.00,WUHU21623XXSP,2017-03-27 19:29:00,
2017-03-27 12:31:00,71.2,48.1,29.94,SW,217,3.0,6.0,44,0.00,,,0.00,WUHU21623XXSP,2017-03-27 19:31:00,
2017-03-27 12:33:00,71.4,48.3,29.94,SW,225,5.0,6.0,44,0.00,,,0.00,WUHU21623XXSP,2017-03-27 19:33:00,
2017-03-27 12:34:00,71.4,47.7,29.94,SW,231,2.0,6.0,43,0.00,,,0.00,WUHU21623XXSP,2017-03-27 19:34:00,
2017-03-27 12:35:00,71.4,47.7,29.94,WSW,252,2.0,6.0,43,0.00,,,0.00,WUHU21623XXSP,2017-03-27 19:35:00,
2017-03-27 12:36:00,71.4,47.7,29.94,SW,225,3.0,6.0,43,0.00,,,0.00,WUHU21623XXSP,2017-03-27 19:36:00,
2017-03-27 12:39:00,71.8,48.0,29.94,WSW,247,2.0,6.0,43,0.00,,,0.00,WUHU21623XXSP,2017-03-27 19:39:00,
2017-03-27 12:44:00,72.1,47.7,29.93,WSW,251,2.0,6.0,42,0.00,,,0.00,WUHU21623XXSP,2017-03-27 19:44:00,
2017-03-27 12:47:00,72.3,47.2,29.93,SW,232,2.0,6.0,41,0.00,,,0.00,WUHU21623XXSP,2017-03-27 19:47:00,
2017-03-27 12:51:00,72.5,48.0,29.93,West,270,5.0,5.0,42,0.00,,,0.00,WUHU21623XXSP,2017-03-27 19:51:00,
2017-03-27 12:52:00,72.7,47.5,29.93,West,280,3.0,5.0,41,0.00,,,0.00,WUHU21623XXSP,2017-03-27 19:52:00,
2017-03-27 12:54:00,73.0,47.8,29.93,SW,225,3.0,5.0,41,0.00,,,0.00,WUHU21623XXSP,2017-03-27 19:54:00,
2017-03-27 12:57:00,73.2,48.0,29.93,SW,230,2.0,5.0,41,0.00,,,0.00,WUHU21623XXSP,2017-03-27 19:57:00,
2017-03-27 12:59:00,73.2,48.0,29.93,SW,229,2.0,5.0,41,0.00,,,0.00,WUHU21623XXSP,2017-03-27 19:59:00,
2017-03-27 13:04:00,73.8,47.9,29.92,SW,234,4.0,7.0,40,0.00,,,0.00,WUHU21623XXSP,2017-03-27 20:04:00,
2017-03-27 13:09:00,73.9,47.3,29.92,SW,225,3.0,7.0,39,0.00,,,0.00,WUHU21623XXSP,2017-03-27 20:09:00,
2017-03-27 13:14:00,74.3,46.9,29.92,SW,229,2.0,5.0,38,0.00,,,0.00,WUHU21623XXSP,2017-03-27 20:14:00,
2017-03-27 13:19:00,74.3,46.9,29.92,WSW,237,3.0,5.0,38,0.00,,,0.00,WUHU21623XXSP,2017-03-27 20:19:00,
2017-03-27 13:24:00,74.5,47.1,29.92,SW,225,4.0,5.0,38,0.00,,,0.00,WUHU21623XXSP,2017-03-27 20:24:00,
2017-03-27 13:29:00,74.8,46.6,29.91,SW,218,2.0,5.0,37,0.00,,,0.00,WUHU21623XXSP,2017-03-27 20:29:00,
2017-03-27 13:34:00,75.0,46.8,29.91,WNW,302,2.0,7.0,37,0.00,,,0.00,WUHU21623XXSP,2017-03-27 20:34:00,
2017-03-27 13:39:00,75.0,45.3,29.91,NNW,327,2.0,7.0,35,0.00,,,0.00,WUHU21623XXSP,2017-03-27 20:39:00,
2017-03-27 13:44:00,75.0,45.3,29.90,ENE,72,3.0,7.0,35,0.00,,,0.00,WUHU21623XXSP,2017-03-27 20:44:00,
2017-03-27 13:49:00,75.2,46.3,29.90,WSW,247,1.0,7.0,36,0.00,,,0.00,WUHU21623XXSP,2017-03-27 20:49:00,
2017-03-27 13:54:00,75.7,45.9,29.91,WSW,247,4.0,6.0,35,0.00,,,0.00,WUHU21623XXSP,2017-03-27 20:54:00,
2017-03-27 13:59:00,75.9,44.6,29.90,SW,233,3.0,7.0,33,0.00,,,0.00,WUHU21623XXSP,2017-03-27 20:59:00,
2017-03-27 14:04:00,76.1,45.5,29.90,SE,124,1.0,7.0,34,0.00,,,0.00,WUHU21623XXSP,2017-03-27 21:04:00,
2017-03-27 14:09:00,76.3,44.9,29.90,WSW,247,4.0,6.0,33,0.00,,,0.00,WUHU21623XXSP,2017-03-27 21:09:00,
2017-03-27 14:14:00,76.3,45.7,29.90,SSW,199,3.0,6.0,34,0.00,,,0.00,WUHU21623XXSP,2017-03-27 21:14:00,
2017-03-27 14:19:00,76.5,45.1,29.90,SSW,199,4.0,6.0,33,0.00,,,0.00,WUHU21623XXSP,2017-03-27 21:19:00,
2017-03-27 14:24:00,76.5,45.9,29.89,WSW,247,4.0,6.0,34,0.00,,,0.00,WUHU21623XXSP,2017-03-27 21:24:00,
2017-03-27 14:29:00,76.6,45.2,29.89,SW,230,3.0,10.0,33,0.00,,,0.00,WUHU21623XXSP,2017-03-27 21:29:00,
2017-03-27 14:34:00,76.6,45.2,29.90,WNW,292,5.0,10.0,33,0.00,,,0.00,WUHU21623XXSP,2017-03-27 21:34:00,
2017-03-27 14:39:00,76.6,45.2,29.90,SSW,202,6.0,7.0,33,0.00,,,0.00,WUHU21623XXSP,2017-03-27 21:39:00,
2017-03-27 14:44:00,76.6,45.2,29.90,WSW,249,3.0,7.0,33,0.00,,,0.00,WUHU21623XXSP,2017-03-27 21:44:00,
2017-03-27 14:49:00,76.6,44.4,29.90,NW,317,4.0,9.0,32,0.00,,,0.00,WUHU21623XXSP,2017-03-27 21:49:00,
2017-03-27 14:54:00,76.5,45.1,29.90,SW,230,2.0,9.0,33,0.00,,,0.00,WUHU21623XXSP,2017-03-27 21:54:00,
2017-03-27 14:59:00,76.3,44.1,29.89,SSW,202,2.0,5.0,32,0.00,,,0.00,WUHU21623XXSP,2017-03-27 21:59:00,
2017-03-27 15:04:00,76.3,44.1,29.88,SW,225,3.0,5.0,32,0.00,,,0.00,WUHU21623XXSP,2017-03-27 22:04:00,
2017-03-27 15:09:00,76.6,42.7,29.89,SW,225,6.0,9.0,30,0.00,,,0.00,WUHU21623XXSP,2017-03-27 22:09:00,
2017-03-27 15:14:00,76.8,42.9,29.89,SW,226,3.0,9.0,30,0.00,,,0.00,WUHU21623XXSP,2017-03-27 22:14:00,
2017-03-27 15:19:00,77.0,43.0,29.89,SW,235,4.0,7.0,30,0.00,,,0.00,WUHU21623XXSP,2017-03-27 22:19:00,
2017-03-27 15:24:00,77.0,41.2,29.88,SW,225,2.0,7.0,28,0.00,,,0.00,WUHU21623XXSP,2017-03-27 22:24:00,
2017-03-27 15:29:00,77.0,42.2,29.87,South,180,4.0,9.0,29,0.00,,,0.00,WUHU21623XXSP,2017-03-27 22:29:00,
2017-03-27 15:39:00,77.2,44.1,29.87,SSW,202,5.0,6.0,31,0.00,,,0.00,WUHU21623XXSP,2017-03-27 22:39:00,
2017-03-27 15:44:00,77.2,41.4,29.87,WSW,247,5.0,9.0,28,0.00,,,0.00,WUHU21623XXSP,2017-03-27 22:44:00,
2017-03-27 15:49:00,77.0,41.2,29.87,SW,214,4.0,9.0,28,0.00,,,0.00,WUHU21623XXSP,2017-03-27 22:49:00,
2017-03-27 15:54:00,77.0,44.7,29.87,SW,216,4.0,7.0,32,0.00,,,0.00,WUHU21623XXSP,2017-03-27 22:54:00,
2017-03-27 15:59:00,76.8,45.4,29.87,WSW,247,6.0,8.0,33,0.00,,,0.00,WUHU21623XXSP,2017-03-27 22:59:00,
2017-03-27 16:04:00,76.5,45.1,29.87,SSW,201,5.0,8.0,33,0.00,,,0.00,WUHU21623XXSP,2017-03-27 23:04:00,
2017-03-27 16:09:00,76.1,44.7,29.87,SW,225,4.0,8.0,33,0.00,,,0.00,WUHU21623XXSP,2017-03-27 23:09:00,
2017-03-27 16:14:00,76.1,44.7,29.87,SW,214,5.0,9.0,33,0.00,,,0.00,WUHU21623XXSP,2017-03-27 23:14:00,
2017-03-27 16:19:00,76.3,44.1,29.87,SW,225,5.0,10.0,32,0.00,,,0.00,WUHU21623XXSP,2017-03-27 23:19:00,
2017-03-27 16:24:00,76.3,41.5,29.86,SW,229,2.0,10.0,29,0.00,,,0.00,WUHU21623XXSP,2017-03-27 23:24:00,
2017-03-27 16:29:00,76.5,39.9,29.86,SW,225,5.0,10.0,27,0.00,,,0.00,WUHU21623XXSP,2017-03-27 23:29:00,
2017-03-27 16:34:00,76.6,39.0,29.87,SW,233,3.0,10.0,26,0.00,,,0.00,WUHU21623XXSP,2017-03-27 23:34:00,
2017-03-27 16:39:00,76.8,38.2,29.86,WSW,240,3.0,11.0,25,0.00,,,0.00,WUHU21623XXSP,2017-03-27 23:39:00,
2017-03-27 16:44:00,76.8,37.2,29.86,WSW,247,6.0,11.0,24,0.00,,,0.00,WUHU21623XXSP,2017-03-27 23:44:00,
2017-03-27 16:49:00,76.8,36.1,29.86,SW,231,3.0,10.0,23,0.00,,,0.00,WUHU21623XXSP,2017-03-27 23:49:00,
2017-03-27 16:54:00,76.6,35.9,29.85,WSW,247,4.0,9.0,23,0.00,,,0.00,WUHU21623XXSP,2017-03-27 23:54:00,
2017-03-27 16:59:00,76.5,36.9,29.85,West,270,3.0,11.0,24,0.00,,,0.00,WUHU21623XXSP,2017-03-27 23:59:00,
2017-03-27 17:04:00,76.4,36.8,29.86,SW,236,4.0,11.0,24,0.00,,,0.00,WUHU21623XXSP,2017-03-28 00:04:00,
2017-03-27 17:09:00,76.1,36.6,29.85,West,271,4.0,9.0,24,0.00,,,0.00,WUHU21623XXSP,2017-03-28 00:09:00,
2017-03-27 17:14:00,76.2,37.7,29.85,WSW,245,4.0,9.0,25,0.00,,,0.00,WUHU21623XXSP,2017-03-28 00:14:00,
2017-03-27 17:19:00,76.3,37.8,29.85,SW,235,3.0,8.0,25,0.00,,,0.00,WUHU21623XXSP,2017-03-28 00:19:00,
2017-03-27 17:24:00,75.9,37.4,29.85,South,180,5.0,7.0,25,0.00,,,0.00,WUHU21623XXSP,2017-03-28 00:24:00,
2017-03-27 17:29:00,75.6,37.2,29.85,WNW,301,2.0,7.0,25,0.00,,,0.00,WUHU21623XXSP,2017-03-28 00:29:00,
2017-03-27 17:34:00,75.5,37.1,29.85,NNW,343,2.0,7.0,25,0.00,,,0.00,WUHU21623XXSP,2017-03-28 00:34:00,
2017-03-27 17:39:00,75.3,36.9,29.86,NE,49,3.0,7.0,25,0.00,,,0.00,WUHU21623XXSP,2017-03-28 00:39:00,
2017-03-27 17:44:00,74.8,36.5,29.85,SSW,212,3.0,7.0,25,0.00,,,0.00,WUHU21623XXSP,2017-03-28 00:44:00,
2017-03-27 17:49:00,74.6,36.3,29.85,WSW,244,3.0,5.0,25,0.00,,,0.00,WUHU21623XXSP,2017-03-28 00:49:00,
2017-03-27 17:54:00,74.0,35.9,29.85,South,180,5.0,9.0,25,0.00,,,0.00,WUHU21623XXSP,2017-03-28 00:54:00,
2017-03-27 17:59:00,73.6,36.5,29.85,WSW,256,3.0,9.0,26,0.00,,,0.00,WUHU21623XXSP,2017-03-28 00:59:00,
2017-03-27 18:04:00,73.3,36.2,29.85,West,265,3.0,7.0,26,0.00,,,0.00,WUHU21623XXSP,2017-03-28 01:04:00,
2017-03-27 18:14:00,72.6,36.6,29.85,SW,225,4.0,10.0,27,0.00,,,0.00,WUHU21623XXSP,2017-03-28 01:14:00,
2017-03-27 18:19:00,72.0,36.0,29.85,NW,311,3.0,10.0,27,0.00,,,0.00,WUHU21623XXSP,2017-03-28 01:19:00,
2017-03-27 18:24:00,71.6,36.6,29.86,South,180,2.0,7.0,28,0.00,,,0.00,WUHU21623XXSP,2017-03-28 01:24:00,
2017-03-27 18:29:00,71.3,36.3,29.86,WSW,245,3.0,8.0,28,0.00,,,0.00,WUHU21623XXSP,2017-03-28 01:29:00,
2017-03-27 18:34:00,71.0,37.0,29.86,WNW,302,2.0,8.0,29,0.00,,,0.00,WUHU21623XXSP,2017-03-28 01:34:00,
2017-03-27 18:39:00,70.9,36.9,29.86,SSW,207,2.0,7.0,29,0.00,,,0.00,WUHU21623XXSP,2017-03-28 01:39:00,
2017-03-27 18:44:00,70.6,36.6,29.86,West,265,2.0,14.0,29,0.00,,,0.00,WUHU21623XXSP,2017-03-28 01:44:00,
2017-03-27 18:49:00,70.5,36.5,29.86,SW,225,5.0,14.0,29,0.00,,,0.00,WUHU21623XXSP,2017-03-28 01:49:00,
2017-03-27 18:54:00,70.2,37.2,29.86,North,0,2.0,5.0,30,0.00,,,0.00,WUHU21623XXSP,2017-03-28 01:54:00,
2017-03-27 18:59:00,69.9,36.9,29.86,SW,230,2.0,5.0,30,0.00,,,0.00,WUHU21623XXSP,2017-03-28 01:59:00,
2017-03-27 19:04:00,69.8,36.8,29.87,WSW,240,2.0,5.0,30,0.00,,,0.00,WUHU21623XXSP,2017-03-28 02:04:00,
2017-03-27 19:09:00,69.5,36.6,29.87,SW,225,2.0,5.0,30,0.00,,,0.00,WUHU21623XXSP,2017-03-28 02:09:00,
2017-03-27 19:14:00,69.4,37.3,29.87,SW,217,2.0,5.0,31,0.00,,,0.00,WUHU21623XXSP,2017-03-28 02:14:00,
2017-03-27 19:19:00,69.3,37.1,29.87,South,185,2.0,6.0,31,0.00,,,0.00,WUHU21623XXSP,2017-03-28 02:19:00,
2017-03-27 19:24:00,69.1,37.0,29.89,SW,222,4.0,7.0,31,0.00,,,0.00,WUHU21623XXSP,2017-03-28 02:24:00,
2017-03-27 19:29:00,68.9,36.8,29.89,WSW,243,3.0,7.0,31,0.00,,,0.00,WUHU21623XXSP,2017-03-28 02:29:00,
2017-03-27 19:34:00,68.7,36.7,29.88,SSW,210,2.0,4.0,31,0.00,,,0.00,WUHU21623XXSP,2017-03-28 02:34:00,
2017-03-27 19:39:00,68.6,36.6,29.88,SW,231,3.0,5.0,31,0.00,,,0.00,WUHU21623XXSP,2017-03-28 02:39:00,
2017-03-27 19:44:00,68.4,36.4,29.89,SW,228,2.0,5.0,31,0.00,,,0.00,WUHU21623XXSP,2017-03-28 02:44:00,
2017-03-27 19:49:00,68.2,36.2,29.89,SW,221,3.0,6.0,31,0.00,,,0.00,WUHU21623XXSP,2017-03-28 02:49:00,
2017-03-27 19:54:00,68.0,36.9,29.89,SW,225,4.0,6.0,32,0.00,,,0.00,WUHU21623XXSP,2017-03-28 02:54:00,
2017-03-27 19:59:00,67.9,36.7,29.89,SW,226,2.0,5.0,32,0.00,,,0.00,WUHU21623XXSP,2017-03-28 02:59:00,
2017-03-27 20:04:00,67.6,36.5,29.89,SW,226,3.0,5.0,32,0.00,,,0.00,WUHU21623XXSP,2017-03-28 03:04:00,
2017-03-27 20:09:00,67.5,36.4,29.90,SW,225,3.0,5.0,32,0.00,,,0.00,WUHU21623XXSP,2017-03-28 03:09:00,
2017-03-27 20:14:00,67.4,36.3,29.89,SW,230,1.0,5.0,32,0.00,,,0.00,WUHU21623XXSP,2017-03-28 03:14:00,
2017-03-27 20:19:00,67.2,36.9,29.89,SW,229,3.0,6.0,33,0.00,,,0.00,WUHU21623XXSP,2017-03-28 03:19:00,
2017-03-27 20:24:00,66.7,36.5,29.89,SSW,197,2.0,6.0,33,0.00,,,0.00,WUHU21623XXSP,2017-03-28 03:24:00,
2017-03-27 20:29:00,66.6,36.4,29.90,NW,313,2.0,4.0,33,0.00,,,0.00,WUHU21623XXSP,2017-03-28 03:29:00,
2017-03-27 20:34:00,66.6,36.4,29.89,West,272,2.0,3.0,33,0.00,,,0.00,WUHU21623XXSP,2017-03-28 03:34:00,
2017-03-27 20:39:00,66.5,36.3,29.90,North,357,2.0,4.0,33,0.00,,,0.00,WUHU21623XXSP,2017-03-28 03:39:00,
2017-03-27 20:44:00,66.2,36.1,29.90,NW,310,2.0,5.0,33,0.00,,,0.00,WUHU21623XXSP,2017-03-28 03:44:00,
2017-03-27 20:49:00,66.1,36.0,29.90,West,270,4.0,5.0,33,0.00,,,0.00,WUHU21623XXSP,2017-03-28 03:49:00,
2017-03-27 20:54:00,66.1,36.7,29.89,WSW,248,3.0,5.0,34,0.00,,,0.00,WUHU21623XXSP,2017-03-28 03:54:00,
2017-03-27 20:59:00,65.9,36.5,29.88,NW,323,2.0,5.0,34,0.00,,,0.00,WUHU21623XXSP,2017-03-28 03:59:00,
2017-03-27 21:04:00,65.6,36.3,29.89,NNW,336,3.0,6.0,34,0.00,,,0.00,WUHU21623XXSP,2017-03-28 04:04:00,
2017-03-27 21:09:00,65.5,36.2,29.89,NNE,14,2.0,6.0,34,0.00,,,0.00,WUHU21623XXSP,2017-03-28 04:09:00,
2017-03-27 21:14:00,65.4,36.1,29.90,ENE,67,0.0,5.0,34,0.00,,,0.00,WUHU21623XXSP,2017-03-28 04:14:00,
2017-03-27 21:20:00,65.3,36.0,29.91,SSE,157,2.0,5.0,34,0.00,,,0.00,WUHU21623XXSP,2017-03-28 04:20:00,
2017-03-27 21:24:00,65.0,35.8,29.92,NE,43,2.0,4.0,34,0.00,,,0.00,WUHU21623XXSP,2017-03-28 04:24:00,